Bowling Green, KY

1:18 AM CDT on May 26, 2017 (GMT -0500)
Bowling Green-Warren County Regional

Weather History for KBWG - April, 2012

Change the Weather History Date:

Wednesday, April 25, 2012

  Actual Average Record
Temperature  
Mean Temperature 67 °F 60 °F  
Max Temperature 80 °F 72 °F 92 °F (1915)
Min Temperature 53 °F 49 °F 32 °F (1927)
Degree Days  
Heating Degree Days 0 6  
Month to date heating degree days 163 225  
Since 1 July heating degree days 2945 3943  
Cooling Degree Days 2 1  
Month to date cooling degree days 43 24  
Year to date cooling degree days 101 29  
Growing Degree Days 16 (Base 50)    
Moisture  
Dew Point 54 °F    
Average Humidity 63    
Maximum Humidity 77    
Minimum Humidity 48    
Precipitation  
Precipitation 0.02 in 0.17 in 1.13 in (1932)
Month to date precipitation 1.76 3.55  
Year to date precipitation 12.28 15.53  
Snow  
Snow 0.00 in 0.00 in 2.30 in (1910)
Month to date snowfall 0.0 0.2  
Since 1 July snowfall 1.4 9.1  
Snow Depth 0.00 in    
Sea Level Pressure  
Sea Level Pressure 29.74 in    
Wind  
Wind Speed 9 mph (SSW)    
Max Wind Speed 20 mph    
Max Gust Speed 26 mph    
Visibility 10 miles    
Events      
T = Trace of Precipitation, MM = Missing Value Source: NWS Daily Summary

Daily Weather History Graph

Daily Weather History Graph

Search for Another Location

Airport or City:

Trip Planner

Search our weather history database for the weather conditions in past years. The results will help you decide how hot, cold, wet, or windy it might be!

Date:

Astronomy

Apr. 25, 2012 Rise Set
Actual Time 5:57 AM CDT 7:29 PM CDT
Civil Twilight 5:30 AM CDT 7:57 PM CDT
Nautical Twilight 4:57 AM CDT 8:30 PM CDT
Astronomical Twilight 4:22 AM CDT 9:05 PM CDT
Moon 8:46 AM CDT (4/25) 11:32 PM CDT (4/25)
Length of Visible Light 14h 26m
Length of Day
13h 31m
Waxing Crescent, 17% of the Moon is Illuminated
Apr 25
Waxing Crescent
Apr 29
First Quarter
May 5
Full
May 12
Last Quarter
May 20
New

Hourly Weather History & Observations

Time (CDT) Temp. Heat Index Dew Point Humidity Pressure Visibility Wind Dir Wind Speed Gust Speed Precip Events Conditions
12:53 AM 55.9 °F - 46.9 °F 72% 29.77 in 10.0 mi SSW 4.6 mph - N/A   Partly Cloudy
1:53 AM 57.9 °F - 46.0 °F 65% 29.74 in 10.0 mi SW 8.1 mph - N/A   Overcast
2:53 AM 57.9 °F - 46.0 °F 65% 29.73 in 10.0 mi SW 6.9 mph - N/A   Mostly Cloudy
3:53 AM 57.9 °F - 45.0 °F 62% 29.73 in 10.0 mi SW 4.6 mph - N/A   Clear
4:53 AM 57.9 °F - 45.0 °F 62% 29.74 in 10.0 mi SW 6.9 mph - N/A   Clear
5:53 AM 53.1 °F - 46.0 °F 77% 29.75 in 10.0 mi South 4.6 mph - N/A   Clear
6:53 AM 55.9 °F - 46.0 °F 69% 29.78 in 10.0 mi SW 4.6 mph - N/A   Clear
7:53 AM 62.1 °F - 48.9 °F 62% 29.79 in 10.0 mi SW 5.8 mph - N/A   Clear
8:53 AM 66.9 °F - 51.1 °F 57% 29.79 in 10.0 mi WSW 9.2 mph - N/A   Clear
9:53 AM 70.0 °F - 53.1 °F 55% 29.80 in 10.0 mi WSW 6.9 mph - N/A   Clear
10:53 AM 73.0 °F - 55.9 °F 55% 29.79 in 10.0 mi SSW 8.1 mph - N/A   Clear
11:53 AM 77.0 °F - 57.9 °F 52% 29.77 in 10.0 mi South 9.2 mph - N/A   Clear
12:53 PM 79.0 °F - 57.0 °F 47% 29.75 in 10.0 mi SSW 10.4 mph 19.6 mph N/A   Clear
2:53 PM 73.9 °F - 62.1 °F 66% 29.76 in 10.0 mi SSW 13.8 mph - 0.01 in   Overcast
3:53 PM 79.0 °F - 62.1 °F 56% 29.74 in 10.0 mi South 9.2 mph - N/A   Partly Cloudy
4:53 PM 79.0 °F - 61.0 °F 54% 29.70 in 10.0 mi South 10.4 mph - N/A   Clear
5:53 PM 80.1 °F 80.9 °F 60.1 °F 50% 29.67 in 10.0 mi SSW 11.5 mph - N/A   Clear
6:53 PM 77.0 °F - 60.1 °F 56% 29.67 in 10.0 mi SSW 15.0 mph - 0.00 in   Partly Cloudy
7:53 PM 75.9 °F - 61.0 °F 60% 29.65 in 10.0 mi SSW 18.4 mph 23.0 mph N/A   Clear
8:53 PM 73.9 °F - 61.0 °F 64% 29.72 in 10.0 mi WNW 5.8 mph - N/A   Clear
9:53 PM 73.0 °F - 61.0 °F 66% 29.73 in 10.0 mi Calm Calm - N/A   Mostly Cloudy
10:53 PM 71.1 °F - 60.1 °F 68% 29.73 in 10.0 mi SSW 5.8 mph - N/A   Overcast
11:53 PM 72.0 °F - 57.9 °F 61% 29.71 in 10.0 mi SSW 10.4 mph 18.4 mph N/A   Clear